Location: Calais Saint-Pierre
(50.9509°N, 1.8522°E)
Time: 07:41:30
(UTC+00:00)

Cosmos 1634 Rocket - Pass Details

Date: 15 May 2026
Orbit: 960 x 990 km, 82.9° (Epoch: 6 June)

Event Time Altitude Azimuth Distance (km) Brightness Sun altitude
Exits shadow 22:22:33 27° 173° (S) 1,764 4.8 -17.5°
Maximum altitude 22:26:04 71° 95° (E) 1,022 4.0 -17.7°
Drops below altitude 10° 22:32:16 10° 13° (NNE) 2,723 7.2 -18.0°
Sets 22:34:48 0° 12° (NNE) 3,678 8.1 -18.1°
